DW6440 Weather Reports


Display with metric or nautical units.
time (UTC)temp
F
wind
direction
speed
MPH
gust
MPH
rain 1hr
in
rain 24hr
in
rain mn
in
humidity
%
barometer
mb
20260502203212 58 250 3.0 10.0 0.00 0.00 0.00 41 1010.6
20260502202715 60 261 4.0 10.0 0.00 0.00 0.00 43 1010.7
20260502202212 59 304 3.0 9.0 0.00 0.00 0.00 43 1010.8
20260502201714 58 269 3.0 8.0 0.00 0.00 0.00 43 1010.7
20260502201209 58 303 4.0 10.0 0.00 0.00 0.00 42 1010.8
20260502200715 58 266 5.0 13.0 0.00 0.00 0.00 39 1010.9
20260502200211 60 0 5.0 13.0 0.00 0.00 0.00 39 1010.8
20260502195702 59 300 6.0 13.0 0.00 0.00 0.00 45 1010.9
20260502195156 58 345 5.0 13.0 0.00 0.00 0.00 42 1011.0
20260502195135 58 0 4.0 10.0 0.00 0.00 0.00 44 1011.0
20260502194146 57 252 4.0 8.0 0.00 0.00 0.00 42 1011.1
20260502193638 57 252 5.0 10.0 0.00 0.00 0.00 42 1011.2
20260502193354 59 262 5.0 13.0 0.00 0.00 0.00 39 1011.2
20260502192845 60 0 5.0 13.0 0.00 0.00 0.00 44 1011.3
20260502192121 58 330 5.0 12.0 0.00 0.00 0.00 40 1011.5
20260502191634 59 314 5.0 12.0 0.00 0.00 0.00 42 1011.5
20260502191108 60 301 6.0 14.0 0.00 0.00 0.00 44 1011.7
20260502190602 61 327 4.0 14.0 0.00 0.00 0.00 47 1011.7
20260502190111 60 350 3.0 8.0 0.00 0.00 0.00 43 1011.7
20260502185552 58 250 4.0 10.0 0.00 0.00 0.00 42 1011.8
20260502185047 60 310 5.0 12.0 0.00 0.00 0.00 44 1011.9
20260502184540 58 315 6.0 12.0 0.00 0.00 0.00 43 1012.0
20260502184032 59 309 5.0 14.0 0.00 0.00 0.00 46 1012.1
20260502183528 60 330 4.0 12.0 0.00 0.00 0.00 40 1012.1
20260502183021 61 285 4.0 10.0 0.00 0.00 0.00 50 1012.1
20260502182517 58 344 4.0 9.0 0.00 0.00 0.00 48 1012.2
20260502182009 58 313 3.0 8.0 0.00 0.00 0.00 45 1012.2
20260502181729 57 343 3.0 12.0 0.00 0.00 0.00 41 1012.3
20260502180956 58 257 3.0 12.0 0.00 0.00 0.00 53 1012.3
20260502180452 57 355 3.0 10.0 0.00 0.00 0.00 45 1012.2
20260502164316 56 12 5.0 10.0 0.00 0.00 0.00 53 1012.7
20260502163810 56 345 5.0 10.0 0.00 0.00 0.00 56 1012.8
20260502163304 56 323 5.0 11.0 0.00 0.00 0.00 55 1012.8
20260502162757 55 0 5.0 11.0 0.00 0.00 0.00 54 1012.8
20260502162515 56 345 4.0 10.0 0.00 0.00 0.00 51 1012.9
20260502162011 55 27 4.0 9.0 0.00 0.00 0.00 56 1013.1
20260502161238 55 267 4.0 10.0 0.00 0.00 0.00 57 1013.2
20260502160734 55 327 4.0 10.0 0.00 0.00 0.00 58 1013.2
20260502160230 55 292 3.0 8.0 0.00 0.00 0.00 61 1013.1
20260502152156 53 324 4.0 8.0 0.00 0.00 0.00 59 1013.3
20260502151656 53 260 3.0 8.0 0.00 0.00 0.00 63 1013.3
20260502151157 52 355 5.0 11.0 0.00 0.00 0.00 62 1013.2
20260502150916 52 25 6.0 11.0 0.00 0.00 0.00 61 1013.2
20260502150156 53 23 5.0 11.0 0.00 0.00 0.00 60 1013.3
20260502130645 48 355 4.0 11.0 0.00 0.00 0.00 76 1013.2
20260502130151 47 327 4.0 12.0 0.00 0.00 0.00 76 1013.3
20260502123644 47 324 4.0 11.0 0.00 0.00 0.00 77 1013.3
20260502123145 47 27 5.0 11.0 0.00 0.00 0.00 78 1013.2
20260502122643 47 329 5.0 11.0 0.00 0.00 0.00 78 1013.2
20260502122146 47 312 5.0 11.0 0.00 0.00 0.00 78 1013.1
20260502121641 47 331 3.0 11.0 0.00 0.00 0.00 78 1013.2
20260502121357 46 265 4.0 14.0 0.00 0.00 0.00 79 1013.2
20260502120640 46 346 6.0 14.0 0.00 0.00 0.00 79 1013.1
20260502120140 46 329 6.0 13.0 0.00 0.00 0.00 79 1013.2
20260502115905 46 320 5.0 13.0 0.00 0.00 0.00 79 1013.2
20260502115139 46 338 5.0 12.0 0.00 0.00 0.00 80 1013.2
20260502114959 46 328 5.0 13.0 0.00 0.00 0.00 80 1013.1
20260502114934 46 308 5.0 13.0 0.00 0.00 0.00 80 1013.2
20260502113641 46 326 5.0 12.0 0.00 0.00 0.00 80 1013.1
20260502113139 46 348 6.0 12.0 0.00 0.00 0.00 80 1013.1
20260502112640 46 303 6.0 13.0 0.00 0.00 0.00 81 1013.1
20260502112139 46 323 5.0 13.0 0.00 0.00 0.00 81 1013.1
20260502111639 46 310 5.0 15.0 0.00 0.00 0.00 81 1012.9
20260502111139 46 355 6.0 15.0 0.00 0.00 0.00 81 1012.8
20260502110640 46 323 5.0 15.0 0.00 0.00 0.00 82 1012.8
20260502110138 47 275 3.0 9.0 0.00 0.00 0.00 82 1012.7
20260502105638 47 293 3.0 10.0 0.00 0.00 0.00 84 1012.6
20260502105138 47 319 4.0 10.0 0.00 0.00 0.00 84 1012.6
20260502104631 47 331 4.0 12.0 0.00 0.00 0.00 84 1012.4
20260502104125 47 281 3.0 12.0 0.00 0.00 0.00 84 1012.3
20260502103849 47 302 3.0 10.0 0.00 0.00 0.00 84 1012.3
20260502103114 47 314 2.0 9.0 0.00 0.00 0.00 84 1012.3
20260502102611 47 344 3.0 9.0 0.00 0.00 0.00 83 1012.2
20260502102241 47 252 3.0 9.0 0.00 0.00 0.00 82 1012.2
20260502101834 47 285 3.0 9.0 0.00 0.00 0.00 82 1012.1
20260502101113 47 269 2.0 9.0 0.00 0.00 0.00 82 1012.1
20260502100610 47 300 2.0 7.0 0.00 0.00 0.00 81 1012.1
20260502100326 48 278 3.0 11.0 0.00 0.00 0.00 81 1012.1
20260502091108 49 257 2.0 8.0 0.00 0.00 0.00 86 1012.0
20260502090603 48 258 2.0 8.0 0.00 0.00 0.00 87 1011.9
20260502090104 48 267 2.0 6.0 0.00 0.00 0.00 87 1012.0
20260502071400 50 327 0.0 2.0 0.00 0.00 0.00 85 1011.5
20260502071113 50 327 0.0 2.0 0.00 0.00 0.00 85 1011.5
20260502070346 50 327 0.0 2.0 0.00 0.00 0.00 85 1011.6
20260502065841 50 327 0.0 0.0 0.00 0.00 0.00 85 1011.6
20260502065334 50 327 0.0 1.0 0.00 0.00 0.00 84 1011.6
20260502064827 50 327 0.0 1.0 0.00 0.00 0.00 84 1011.7
20260502064540 51 327 0.0 2.0 0.00 0.00 0.00 84 1011.7
20260502063829 51 327 0.0 2.0 0.00 0.00 0.00 84 1011.8
20260502063309 51 327 1.0 3.0 0.00 0.00 0.00 84 1011.7
20260502062816 51 327 0.0 3.0 0.00 0.00 0.00 83 1011.7
20260502062256 51 327 0.0 3.0 0.00 0.00 0.00 83 1011.7
20260502061751 51 327 0.0 3.0 0.00 0.00 0.00 83 1011.6
20260502061245 51 327 2.0 8.0 0.00 0.00 0.00 83 1011.7
20260502060751 51 328 3.0 8.0 0.00 0.00 0.00 83 1011.6
20260502060235 51 333 2.0 5.0 0.00 0.00 0.00 84 1011.9
20260502055728 51 263 1.0 3.0 0.00 0.00 0.00 84 1011.9
20260502055453 51 262 1.0 5.0 0.00 0.00 0.00 84 1011.9
20260502054715 51 251 2.0 6.0 0.00 0.00 0.00 84 1012.0
20260502054211 51 271 2.0 4.0 0.00 0.00 0.00 85 1011.9
20260502053704 50 241 1.0 4.0 0.00 0.00 0.00 85 1011.9
20260502053157 50 258 0.0 4.0 0.00 0.00 0.00 85 1011.9
20260502052652 50 142 0.0 0.0 0.00 0.00 0.00 86 1012.0
20260502052155 51 142 0.0 0.0 0.00 0.00 0.00 86 1012.0
20260502051653 51 142 0.0 0.0 0.00 0.00 0.00 85 1012.0
20260502051153 51 142 0.0 0.0 0.00 0.00 0.00 85 1011.9
20260502050702 51 142 0.0 0.0 0.00 0.00 0.00 85 1012.2
20260502050147 51 142 0.0 0.0 0.00 0.00 0.00 85 1012.3
20260502045652 51 142 0.0 0.0 0.00 0.00 0.00 85 1012.2
20260502045408 51 142 0.0 0.0 0.00 0.00 0.00 85 1012.1
20260502044649 51 142 0.0 0.0 0.00 0.00 0.00 85 1012.1
20260502044150 51 142 0.0 0.0 0.00 0.00 0.00 85 1011.9
20260502043645 52 142 0.0 0.0 0.00 0.00 0.00 84 1011.9
20260502043145 52 142 0.0 0.0 0.00 0.00 0.00 84 1011.9
20260502042640 52 142 0.0 0.0 0.00 0.00 0.00 83 1011.9
20260502042141 52 142 0.0 0.0 0.00 0.00 0.00 83 1012.1
20260502041859 52 142 0.0 0.0 0.00 0.00 0.00 83 1012.0
20260502041140 52 142 0.0 0.0 0.00 0.00 0.00 83 1011.7
20260502040649 52 142 0.0 0.0 0.00 0.00 0.00 83 1011.8
20260502040139 52 142 0.0 0.0 0.00 0.00 0.00 82 1011.8
20260502040120 52 142 0.0 0.0 0.00 0.00 0.00 82 1011.8
20260502035130 52 142 0.0 0.0 0.00 0.00 0.00 82 1011.8
20260502034628 52 142 0.0 0.0 0.00 0.00 0.00 82 1011.7
20260502034351 52 142 0.0 0.0 0.00 0.00 0.00 83 1011.7
20260502033845 52 142 0.0 0.0 0.00 0.00 0.00 82 1011.8
20260502033124 52 142 0.0 0.0 0.00 0.00 0.00 82 1011.8
20260502032631 52 142 0.0 0.0 0.00 0.00 0.00 81 1011.6
20260502032355 52 142 0.0 0.0 0.00 0.00 0.00 81 1011.5
20260502031842 53 142 0.0 0.0 0.00 0.00 0.00 80 1011.6
20260502031347 53 142 0.0 2.0 0.00 0.00 0.00 78 1011.5
20260502030622 53 142 1.0 5.0 0.00 0.00 0.00 77 1011.4
20260502030123 53 142 1.0 5.0 0.00 0.00 0.00 76 1011.1
20260502025618 53 142 1.0 3.0 0.00 0.00 0.00 75 1011.5
20260502025118 53 142 1.0 3.0 0.00 0.00 0.00 75 1011.6
20260502024616 53 142 1.0 3.0 0.00 0.00 0.00 75 1011.5
20260502024341 53 142 2.0 4.0 0.00 0.00 0.00 74 1011.5
20260502023833 53 143 2.0 7.0 0.00 0.00 0.00 73 1011.4
20260502023115 54 143 2.0 7.0 0.00 0.00 0.00 72 1011.4
20260502022615 54 123 1.0 6.0 0.00 0.00 0.00 71 1011.2
20260502022116 54 114 0.0 4.0 0.00 0.00 0.00 69 1011.2
20260502021612 54 152 0.0 0.0 0.00 0.00 0.00 67 1011.5
20260502021111 54 152 0.0 0.0 0.00 0.00 0.00 66 1011.5
20260502020611 55 152 0.0 0.0 0.00 0.00 0.00 64 1011.6
20260502020122 55 152 1.0 3.0 0.00 0.00 0.00 62 1011.6
20260502015607 55 152 1.0 3.0 0.00 0.00 0.00 62 1011.7
20260502015326 56 153 1.0 3.0 0.00 0.00 0.00 60 1011.6
20260502014609 56 153 1.0 3.0 0.00 0.00 0.00 60 1011.5
20260502014106 55 153 1.0 3.0 0.00 0.00 0.00 59 1011.5
20260502013608 55 153 1.0 3.0 0.00 0.00 0.00 61 1011.5
20260502013102 55 153 1.0 3.0 0.00 0.00 0.00 61 1011.4
20260502012830 55 153 1.0 3.0 0.00 0.00 0.00 61 1011.2
20260502012106 55 153 1.0 3.0 0.00 0.00 0.00 61 1011.1
20260502011604 55 153 0.0 2.0 0.00 0.00 0.00 61 1010.9
20260502011103 55 153 1.0 5.0 0.00 0.00 0.00 61 1010.9
20260502010831 55 153 1.0 5.0 0.00 0.00 0.00 61 1010.9
20260502010116 54 153 0.0 2.0 0.00 0.00 0.00 61 1010.9
20260502005603 55 153 0.0 3.0 0.00 0.00 0.00 61 1010.9
20260502005103 55 153 0.0 3.0 0.00 0.00 0.00 59 1010.8
20260502004825 55 153 1.0 3.0 0.00 0.00 0.00 60 1010.9
20260502004100 55 153 1.0 5.0 0.00 0.00 0.00 60 1010.8
20260502003559 55 153 0.0 5.0 0.00 0.00 0.00 59 1010.8
20260502003059 55 153 1.0 3.0 0.00 0.00 0.00 59 1010.8
20260502002559 56 153 1.0 3.0 0.00 0.00 0.00 58 1010.7
20260502002104 56 160 2.0 4.0 0.00 0.00 0.00 57 1010.5
20260502001603 57 160 2.0 5.0 0.00 0.00 0.00 56 1010.4
20260502001327 57 160 2.0 5.0 0.00 0.00 0.00 55 1010.5
20260502000605 57 162 1.0 5.0 0.00 0.00 0.00 54 1010.6
20260502000058 58 163 1.0 5.0 0.00 0.00 0.00 55 1010.7
20260501235550 57 163 1.0 5.0 0.00 0.00 0.00 54 1010.7
20260501235047 58 194 2.0 5.0 0.00 0.00 0.00 54 1010.7
20260501234539 58 195 2.0 6.0 0.00 0.00 0.00 54 1010.7
20260501234032 58 136 2.0 6.0 0.00 0.00 0.00 54 1010.6
20260501233525 58 237 2.0 5.0 0.00 0.00 0.00 53 1010.5
20260501233021 58 165 2.0 5.0 0.00 0.00 0.00 53 1010.5
20260501232519 58 186 2.0 5.0 0.00 0.00 0.00 52 1010.4
20260501232008 59 174 3.0 8.0 0.00 0.00 0.00 51 1010.3
20260501231507 60 148 3.0 9.0 0.00 0.00 0.00 50 1010.2
20260501231004 60 147 3.0 9.0 0.00 0.00 0.00 50 1010.3
20260501230505 60 142 4.0 9.0 0.00 0.00 0.00 50 1010.2
20260501230003 61 164 5.0 14.0 0.00 0.00 0.00 49 1009.9
20260501225503 61 156 5.0 14.0 0.00 0.00 0.00 48 1010.0
20260501225002 61 188 4.0 12.0 0.00 0.00 0.00 48 1010.1
20260501224502 62 204 4.0 11.0 0.00 0.00 0.00 48 1010.2
20260501224003 62 157 4.0 11.0 0.00 0.00 0.00 47 1010.2
20260501223500 62 140 5.0 12.0 0.00 0.00 0.00 47 1010.1
20260501223000 62 152 5.0 12.0 0.00 0.00 0.00 47 1010.1
20260501222722 62 149 5.0 12.0 0.00 0.00 0.00 47 1010.1
20260501222001 63 130 5.0 12.0 0.00 0.00 0.00 46 1010.1
20260501221504 63 148 3.0 9.0 0.00 0.00 0.00 47 1010.2
20260501221218 63 164 4.0 9.0 0.00 0.00 0.00 47 1010.4
20260501220721 63 123 5.0 10.0 0.00 0.00 0.00 46 1010.5
20260501220001 63 159 5.0 10.0 0.00 0.00 0.00 47 1010.4
20260501215720 63 138 4.0 10.0 0.00 0.00 0.00 45 1010.4
20260501214954 63 156 4.0 10.0 0.00 0.00 0.00 46 1010.5
20260501214448 64 156 4.0 10.0 0.00 0.00 0.00 48 1010.6
20260501213945 64 169 4.0 9.0 0.00 0.01 0.00 46 1010.6
20260501213703 64 209 4.0 11.0 0.00 0.02 0.00 45 1010.6
20260501212930 64 223 4.0 11.0 0.00 0.02 0.00 45 1010.5
20260501212425 64 153 4.0 9.0 0.00 0.03 0.00 47 1010.4
20260501211916 63 259 4.0 9.0 0.00 0.03 0.00 45 1010.4
20260501211412 64 193 5.0 10.0 0.00 0.03 0.00 46 1010.4
20260501210904 64 134 5.0 10.0 0.00 0.03 0.00 48 1010.3
20260501210400 64 139 5.0 10.0 0.00 0.03 0.00 46 1010.4
20260501205852 63 143 5.0 11.0 0.00 0.03 0.00 45 1010.5
20260501205346 64 196 5.0 11.0 0.00 0.03 0.00 47 1010.4
20260501205327 65 146 5.0 11.0 0.00 0.03 0.00 48 1010.6
20260501204601 64 195 4.0 11.0 0.00 0.03 0.00 46 1010.5
20260501203829 64 195 5.0 13.0 0.00 0.03 0.00 48 1010.6